STARLINK-1649 (46552 NORAD) Tracking and Keplerian Element Data

This shows tracking and keplerian element data for the satellite.

Feedback or suggestion? Click here.




ElementValue
Catalog46552
NameSTARLINK-1649
Epoch Orbit177
Epoch Day304.91667824
Epoch Year2020
RAAN321.9436
Inclination52.9997
Eccentricity9.81E-05
Argument of Perigee68.8514
Mean Anonmoly188.5771
Mean Motion15.62679981
Decay Rate0.00078779
L11 46552U 20070W 20304.91667824 .00078779 00000-0 86029-3 0 9999
L22 46552 52.9997 321.9436 0000981 68.8514 188.5771 15.62679981 1779

Live tracking and technical data element details for STARLINK-1649 (NORAD 46552). STARLINK-1649 can be tracked NOW for your location showing map with azimuth and elevation plus other details from your city location.

Track the satellite on the map from your city or location and see movement details for azimuth, elevation, latitude, longitude, range, height, and movement on the map or in text.







IsCatalogInMostPopularTable: catalog: 46552, numindb: 3
Update: records affected: 1



GetName: 46552 STARLINK-1649

Hit Count: updated at: Sat, 31 Oct 2020 10:51:20 GMT